INTELSAT 32E (IS-32E)

Last updated on Nov. 14, 2019, 4:21 a.m. UTC

1 41945U 17007B   19317.47026350 -.00000255  00000-0  00000+0 0  9998
2 41945   0.0188 290.5775 0000200 284.6933 323.1705  1.00269689 10108
UTC
Height (km)
Latitude
Longitude
Inclination
Orbital Period
UTC large
Height (km)
Speed (km/s)
/
Latitude / Longitude
Inclination (degrees)
Orbital Period (minutes)
Azimuth
Elevation
Range (km)
Doppler Factor
iOS Compass Heading
iOS Angle

Next 30 passes for location: Hong Kong

Rise time Rise Azimuth (degrees) Set time Set Azimuth (degrees) Duration Max altitude (degrees)

No matching passes for this satellites